| time (UTC) | temp C | wind direction | speed KPH | gust KPH | rain 1hr cm | rain 24hr cm | rain mn cm | humidity % | barometer mb |
| 20260831125056 | 17 | 273 | 6.4 | 16.1 | 0.00 | 0.76 | 0.76 | 92 | 1010.5 |
| 20260831124602 | 17 | 260 | 3.2 | 16.1 | 0.00 | 0.76 | 0.76 | 93 | 1010.4 |
| 20260831124055 | 16 | 285 | 3.2 | 16.1 | 0.00 | 0.76 | 0.76 | 93 | 1010.4 |
| 20260831123553 | 16 | 255 | 4.8 | 14.5 | 0.00 | 0.76 | 0.76 | 93 | 1010.4 |
| 20260831123055 | 16 | 246 | 6.4 | 14.5 | 0.00 | 0.76 | 0.76 | 93 | 1010.2 |
| 20260831122550 | 16 | 282 | 4.8 | 12.9 | 0.00 | 0.76 | 0.76 | 94 | 1010.1 |
| 20260831122049 | 16 | 272 | 3.2 | 12.9 | 0.00 | 0.76 | 0.76 | 94 | 1009.9 |
| 20260831121550 | 16 | 286 | 4.8 | 17.7 | 0.00 | 0.76 | 0.76 | 94 | 1010.0 |
| 20260831121048 | 16 | 295 | 8.0 | 17.7 | 0.00 | 0.76 | 0.76 | 94 | 1010.0 |
| 20260831120549 | 17 | 259 | 8.0 | 17.7 | 0.00 | 0.76 | 0.76 | 94 | 1009.9 |
| 20260831120046 | 17 | 287 | 8.0 | 17.7 | 0.00 | 0.76 | 0.76 | 94 | 1009.8 |
| 20260831115544 | 17 | 241 | 9.7 | 17.7 | 0.00 | 0.76 | 0.76 | 94 | 1009.8 |
| 20260831115043 | 17 | 284 | 8.0 | 17.7 | 0.00 | 0.76 | 0.76 | 94 | 1009.6 |
| 20260831114551 | 17 | 255 | 9.7 | 17.7 | 0.00 | 0.76 | 0.76 | 94 | 1009.6 |
| 20260831114041 | 17 | 276 | 9.7 | 17.7 | 0.00 | 0.76 | 0.76 | 94 | 1009.4 |
| 20260831113540 | 17 | 271 | 6.4 | 17.7 | 0.00 | 0.76 | 0.76 | 94 | 1009.4 |
| 20260831113041 | 17 | 253 | 9.7 | 17.7 | 0.00 | 0.76 | 0.76 | 94 | 1009.3 |
| 20260831112538 | 17 | 274 | 9.7 | 19.3 | 0.00 | 0.76 | 0.76 | 93 | 1009.2 |
| 20260831112036 | 17 | 265 | 8.0 | 19.3 | 0.00 | 0.76 | 0.76 | 93 | 1009.0 |
| 20260831111535 | 17 | 270 | 8.0 | 16.1 | 0.00 | 0.76 | 0.76 | 93 | 1008.9 |
| 20260831111033 | 17 | 281 | 8.0 | 20.9 | 0.00 | 0.76 | 0.76 | 93 | 1008.9 |
| 20260831110533 | 17 | 281 | 9.7 | 20.9 | 0.00 | 0.76 | 0.76 | 93 | 1008.8 |
| 20260831110032 | 17 | 263 | 9.7 | 20.9 | 0.00 | 0.76 | 0.76 | 93 | 1008.8 |
| 20260831105532 | 17 | 297 | 8.0 | 19.3 | 0.00 | 0.76 | 0.76 | 93 | 1008.7 |
| 20260831105031 | 17 | 285 | 9.7 | 19.3 | 0.00 | 0.76 | 0.76 | 93 | 1008.6 |
| 20260831104537 | 18 | 250 | 8.0 | 19.3 | 0.00 | 0.76 | 0.76 | 93 | 1008.6 |
| 20260831104029 | 18 | 269 | 9.7 | 19.3 | 0.00 | 0.76 | 0.76 | 93 | 1008.6 |
| 20260831103528 | 18 | 288 | 11.3 | 22.5 | 0.00 | 0.76 | 0.76 | 93 | 1008.5 |
| 20260831103027 | 18 | 275 | 9.7 | 24.1 | 0.00 | 0.76 | 0.76 | 93 | 1008.5 |
| 20260831102529 | 18 | 247 | 12.9 | 24.1 | 0.00 | 0.76 | 0.76 | 93 | 1008.5 |
| 20260831102026 | 18 | 315 | 9.7 | 30.6 | 0.00 | 0.76 | 0.76 | 93 | 1008.5 |
| 20260831101526 | 18 | 315 | 12.9 | 30.6 | 0.00 | 0.76 | 0.76 | 93 | 1008.4 |
| 20260831101025 | 18 | 282 | 11.3 | 25.7 | 0.00 | 0.76 | 0.76 | 94 | 1008.3 |
| 20260831100524 | 18 | 283 | 12.9 | 29.0 | 0.00 | 0.76 | 0.76 | 94 | 1008.4 |
| 20260831100023 | 18 | 273 | 14.5 | 29.0 | 0.00 | 0.76 | 0.76 | 94 | 1008.4 |
| 20260831095524 | 18 | 242 | 11.3 | 22.5 | 0.00 | 0.76 | 0.76 | 94 | 1008.3 |
| 20260831095021 | 18 | 269 | 12.9 | 24.1 | 0.00 | 0.76 | 0.76 | 94 | 1008.2 |
| 20260831094520 | 18 | 276 | 9.7 | 24.1 | 0.00 | 0.76 | 0.76 | 93 | 1008.0 |
| 20260831094020 | 18 | 263 | 12.9 | 20.9 | 0.00 | 0.76 | 0.76 | 93 | 1008.0 |
| 20260831093526 | 18 | 273 | 11.3 | 25.7 | 0.03 | 0.76 | 0.76 | 93 | 1007.9 |
| 20260831093021 | 18 | 268 | 12.9 | 25.7 | 0.03 | 0.76 | 0.76 | 93 | 1007.8 |
| 20260831092517 | 18 | 284 | 11.3 | 24.1 | 0.03 | 0.76 | 0.76 | 93 | 1007.6 |
| 20260831092018 | 18 | 279 | 11.3 | 25.7 | 0.03 | 0.76 | 0.76 | 93 | 1007.6 |
| 20260831091513 | 18 | 263 | 9.7 | 25.7 | 0.03 | 0.76 | 0.76 | 93 | 1007.5 |
| 20260831091012 | 18 | 279 | 9.7 | 22.5 | 0.03 | 0.76 | 0.76 | 93 | 1007.3 |
| 20260831090513 | 19 | 283 | 8.0 | 17.7 | 0.03 | 0.76 | 0.76 | 93 | 1007.3 |
| 20260831090011 | 19 | 336 | 8.0 | 17.7 | 0.03 | 0.76 | 0.76 | 93 | 1007.3 |
| 20260831085510 | 19 | 290 | 9.7 | 25.7 | 0.03 | 0.76 | 0.76 | 93 | 1007.2 |
| 20260831085009 | 19 | 294 | 9.7 | 25.7 | 0.03 | 0.76 | 0.76 | 93 | 1007.2 |
| 20260831084507 | 20 | 269 | 9.7 | 22.5 | 0.03 | 0.76 | 0.76 | 94 | 1007.2 |
| 20260831084006 | 20 | 268 | 12.9 | 24.1 | 0.03 | 0.76 | 0.76 | 93 | 1007.0 |
| 20260831083504 | 20 | 279 | 12.9 | 24.1 | 0.00 | 0.71 | 0.71 | 94 | 1007.0 |
| 20260831083003 | 20 | 269 | 11.3 | 24.1 | 0.00 | 0.71 | 0.71 | 93 | 1007.0 |
| 20260831082502 | 20 | 268 | 12.9 | 25.7 | 0.00 | 0.71 | 0.71 | 94 | 1007.0 |
| 20260831082001 | 20 | 269 | 12.9 | 25.7 | 0.00 | 0.71 | 0.71 | 94 | 1007.0 |
| 20260831081601 | 21 | 262 | 11.3 | 22.5 | 0.00 | 0.71 | 0.71 | 94 | 1006.9 |
| 20260831081058 | 21 | 259 | 8.0 | 22.5 | 0.00 | 0.71 | 0.71 | 94 | 1006.9 |
| 20260831080556 | 21 | 244 | 8.0 | 22.5 | 0.00 | 0.71 | 0.71 | 95 | 1007.0 |
| 20260831080110 | 21 | 273 | 8.0 | 19.3 | 0.00 | 0.71 | 0.71 | 95 | 1006.9 |
| 20260831075557 | 22 | 261 | 8.0 | 19.3 | 0.00 | 0.71 | 0.71 | 95 | 1006.8 |
| 20260831075054 | 22 | 280 | 3.2 | 9.7 | 0.00 | 0.71 | 0.71 | 95 | 1006.8 |
| 20260831074602 | 22 | 224 | 3.2 | 9.7 | 0.00 | 0.71 | 0.71 | 95 | 1006.8 |
| 20260831074054 | 22 | 208 | 3.2 | 8.0 | 0.00 | 0.71 | 0.71 | 95 | 1006.6 |
| 20260831073554 | 22 | 200 | 3.2 | 6.4 | 0.00 | 0.71 | 0.71 | 95 | 1006.4 |
| 20260831073053 | 22 | 207 | 0.0 | 3.2 | 0.00 | 0.71 | 0.71 | 95 | 1006.0 |
| 20260831072553 | 22 | 207 | 0.0 | 3.2 | 0.00 | 0.71 | 0.71 | 95 | 1006.1 |
| 20260831072052 | 22 | 208 | 0.0 | 4.8 | 0.00 | 0.71 | 0.71 | 95 | 1006.0 |
| 20260831071604 | 22 | 207 | 1.6 | 4.8 | 0.00 | 0.71 | 0.71 | 95 | 1005.9 |
| 20260831071052 | 22 | 207 | 0.0 | 6.4 | 0.00 | 0.71 | 0.71 | 95 | 1005.8 |
| 20260831070551 | 22 | 208 | 3.2 | 6.4 | 0.00 | 0.71 | 0.71 | 95 | 1006.3 |
| 20260831070052 | 22 | 209 | 1.6 | 4.8 | 0.00 | 0.71 | 0.71 | 95 | 1006.3 |
| 20260831065551 | 22 | 209 | 0.0 | 0.0 | 0.00 | 0.71 | 0.71 | 94 | 1006.3 |
| 20260831065051 | 22 | 209 | 0.0 | 4.8 | 0.00 | 0.71 | 0.71 | 94 | 1006.3 |
| 20260831064550 | 22 | 209 | 0.0 | 6.4 | 0.00 | 0.71 | 0.71 | 94 | 1006.4 |
| 20260831064050 | 22 | 208 | 1.6 | 8.0 | 0.00 | 0.71 | 0.71 | 94 | 1006.3 |
| 20260831063550 | 22 | 213 | 1.6 | 8.0 | 0.00 | 0.71 | 0.71 | 94 | 1006.3 |
| 20260831063049 | 22 | 245 | 0.0 | 8.0 | 0.00 | 0.71 | 0.71 | 94 | 1006.2 |
| 20260831062553 | 22 | 233 | 3.2 | 11.3 | 0.00 | 0.71 | 0.71 | 94 | 1006.3 |
| 20260831062049 | 22 | 225 | 4.8 | 14.5 | 0.38 | 0.71 | 0.71 | 94 | 1006.1 |
| 20260831061549 | 22 | 163 | 8.0 | 14.5 | 0.61 | 0.71 | 0.71 | 94 | 1006.3 |
| 20260831061049 | 22 | 196 | 4.8 | 16.1 | 0.61 | 0.71 | 0.71 | 94 | 1006.3 |
| 20260831060549 | 22 | 167 | 4.8 | 17.7 | 0.71 | 0.71 | 0.71 | 94 | 1006.2 |
| 20260831060100 | 22 | 205 | 1.6 | 11.3 | 0.71 | 0.71 | 0.71 | 94 | 1006.2 |
| 20260831055549 | 22 | 167 | 3.2 | 12.9 | 0.71 | 0.71 | 0.71 | 94 | 1006.3 |
| 20260831055048 | 22 | 173 | 1.6 | 12.9 | 0.71 | 0.71 | 0.71 | 94 | 1006.4 |
| 20260831054548 | 22 | 144 | 4.8 | 12.9 | 0.71 | 0.71 | 0.71 | 94 | 1006.3 |
| 20260831054048 | 22 | 185 | 3.2 | 24.1 | 0.71 | 0.71 | 0.71 | 94 | 1006.3 |
| 20260831053547 | 22 | 211 | 12.9 | 24.1 | 0.71 | 0.71 | 0.71 | 94 | 1005.9 |
| 20260831053055 | 22 | 134 | 4.8 | 11.3 | 0.71 | 0.71 | 0.71 | 93 | 1006.1 |
| 20260831052545 | 22 | 216 | 1.6 | 14.5 | 0.71 | 0.71 | 0.71 | 92 | 1006.4 |
| 20260831052042 | 22 | 329 | 6.4 | 14.5 | 0.33 | 0.33 | 0.33 | 92 | 1006.5 |
| 20260831051544 | 22 | 66 | 6.4 | 12.9 | 0.13 | 0.13 | 0.13 | 91 | 1004.8 |
| 20260831051040 | 23 | 133 | 3.2 | 9.7 | 0.10 | 0.10 | 0.10 | 90 | 1005.2 |
| 20260831050540 | 23 | 148 | 3.2 | 11.3 | 0.00 | 0.00 | 0.00 | 90 | 1005.5 |
| 20260831050057 | 23 | 157 | 4.8 | 11.3 | 0.00 | 0.00 | 0.00 | 89 | 1005.2 |
| 20260831045537 | 23 | 159 | 4.8 | 11.3 | 0.00 | 0.00 | 0.00 | 89 | 1005.5 |
| 20260831045038 | 23 | 155 | 0.0 | 8.0 | 0.00 | 0.00 | 0.00 | 89 | 1005.7 |
| 20260831044537 | 23 | 155 | 3.2 | 11.3 | 0.00 | 0.00 | 0.00 | 89 | 1005.6 |
| 20260831044037 | 23 | 141 | 3.2 | 11.3 | 0.00 | 0.00 | 0.00 | 89 | 1005.5 |
| 20260831043538 | 23 | 173 | 1.6 | 11.3 | 0.00 | 0.00 | 0.00 | 89 | 1005.6 |
| 20260831043043 | 23 | 121 | 6.4 | 11.3 | 0.00 | 0.00 | 0.00 | 89 | 1005.5 |
| 20260831042537 | 23 | 161 | 3.2 | 8.0 | 0.00 | 0.00 | 0.00 | 89 | 1005.6 |
| 20260831042037 | 23 | 153 | 3.2 | 11.3 | 0.00 | 0.00 | 0.00 | 89 | 1005.4 |
| 20260831041551 | 23 | 124 | 1.6 | 12.9 | 0.00 | 0.00 | 0.00 | 89 | 1005.3 |
| 20260831041037 | 23 | 158 | 4.8 | 12.9 | 0.00 | 0.00 | 0.00 | 89 | 1005.2 |
| 20260831040536 | 23 | 153 | 3.2 | 11.3 | 0.00 | 0.00 | 0.00 | 89 | 1005.1 |
| 20260831040036 | 23 | 129 | 3.2 | 12.9 | 0.00 | 0.00 | 0.00 | 89 | 1005.1 |
| 20260831035539 | 23 | 137 | 4.8 | 12.9 | 0.00 | 0.00 | 0.00 | 89 | 1005.1 |
| 20260831035035 | 23 | 135 | 4.8 | 12.9 | 0.00 | 0.00 | 0.00 | 88 | 1005.1 |
| 20260831034539 | 23 | 174 | 4.8 | 12.9 | 0.00 | 0.00 | 0.00 | 88 | 1005.3 |
| 20260831034035 | 23 | 144 | 1.6 | 11.3 | 0.00 | 0.00 | 0.00 | 88 | 1005.5 |
| 20260831033539 | 23 | 157 | 4.8 | 11.3 | 0.00 | 0.00 | 0.00 | 88 | 1005.6 |
| 20260831033036 | 23 | 163 | 3.2 | 12.9 | 0.00 | 0.00 | 0.00 | 87 | 1005.8 |
| 20260831032534 | 23 | 148 | 3.2 | 12.9 | 0.00 | 0.00 | 0.00 | 87 | 1005.8 |
| 20260831032037 | 23 | 152 | 6.4 | 14.5 | 0.00 | 0.00 | 0.00 | 87 | 1005.9 |
| 20260831031545 | 23 | 153 | 8.0 | 16.1 | 0.00 | 0.00 | 0.00 | 87 | 1005.9 |
| 20260831031033 | 23 | 102 | 8.0 | 16.1 | 0.00 | 0.00 | 0.00 | 86 | 1006.0 |
| 20260831030534 | 24 | 134 | 3.2 | 14.5 | 0.00 | 0.00 | 0.00 | 86 | 1006.0 |
| 20260831030036 | 24 | 159 | 4.8 | 12.9 | 0.00 | 0.00 | 0.00 | 86 | 1006.1 |
| 20260831025534 | 24 | 138 | 4.8 | 14.5 | 0.00 | 0.00 | 0.00 | 85 | 1006.2 |
| 20260831025034 | 24 | 136 | 4.8 | 14.5 | 0.00 | 0.00 | 0.00 | 85 | 1006.2 |
| 20260831024533 | 24 | 142 | 1.6 | 12.9 | 0.00 | 0.00 | 0.00 | 85 | 1006.4 |
| 20260831024032 | 24 | 136 | 6.4 | 12.9 | 0.00 | 0.00 | 0.00 | 85 | 1006.4 |
| 20260831023534 | 24 | 165 | 4.8 | 11.3 | 0.00 | 0.00 | 0.00 | 84 | 1006.3 |
| 20260831023033 | 25 | 144 | 3.2 | 12.9 | 0.00 | 0.00 | 0.00 | 84 | 1006.3 |
| 20260831022532 | 25 | 130 | 0.0 | 12.9 | 0.00 | 0.00 | 0.00 | 84 | 1006.4 |
| 20260831022032 | 25 | 158 | 3.2 | 12.9 | 0.00 | 0.00 | 0.00 | 84 | 1006.5 |
| 20260831021533 | 25 | 148 | 4.8 | 12.9 | 0.00 | 0.00 | 0.00 | 84 | 1006.4 |
| 20260831021032 | 25 | 147 | 6.4 | 16.1 | 0.00 | 0.00 | 0.00 | 84 | 1006.2 |
| 20260831020534 | 25 | 155 | 4.8 | 16.1 | 0.00 | 0.00 | 0.00 | 83 | 1006.2 |
| 20260831020034 | 25 | 159 | 6.4 | 17.7 | 0.00 | 0.00 | 0.00 | 83 | 1006.1 |
| 20260831015536 | 25 | 166 | 8.0 | 19.3 | 0.00 | 0.00 | 0.00 | 83 | 1006.0 |
| 20260831015032 | 25 | 157 | 6.4 | 19.3 | 0.00 | 0.00 | 0.00 | 83 | 1006.0 |
| 20260831014537 | 25 | 163 | 9.7 | 17.7 | 0.00 | 0.00 | 0.00 | 82 | 1005.9 |
| 20260831014031 | 25 | 132 | 8.0 | 17.7 | 0.00 | 0.00 | 0.00 | 82 | 1005.8 |
| 20260831013531 | 25 | 177 | 6.4 | 17.7 | 0.00 | 0.00 | 0.00 | 82 | 1005.6 |
| 20260831013040 | 25 | 153 | 9.7 | 17.7 | 0.00 | 0.00 | 0.00 | 82 | 1005.3 |
| 20260831012531 | 25 | 138 | 3.2 | 14.5 | 0.00 | 0.00 | 0.00 | 82 | 1005.2 |
| 20260831012031 | 25 | 144 | 3.2 | 14.5 | 0.00 | 0.00 | 0.00 | 82 | 1005.1 |
| 20260831011531 | 25 | 130 | 4.8 | 12.9 | 0.00 | 0.00 | 0.00 | 81 | 1005.1 |
| 20260831011029 | 25 | 156 | 3.2 | 16.1 | 0.00 | 0.00 | 0.00 | 81 | 1005.2 |
| 20260831010530 | 25 | 148 | 6.4 | 16.1 | 0.00 | 0.00 | 0.00 | 81 | 1005.1 |
| 20260831010030 | 25 | 129 | 3.2 | 17.7 | 0.00 | 0.00 | 0.00 | 81 | 1005.0 |
| 20260831005530 | 25 | 70 | 8.0 | 17.7 | 0.00 | 0.00 | 0.00 | 80 | 1005.0 |
| 20260831005030 | 26 | 355 | 4.8 | 16.1 | 0.00 | 0.00 | 0.00 | 80 | 1004.9 |
| 20260831004529 | 26 | 138 | 4.8 | 20.9 | 0.00 | 0.00 | 0.00 | 80 | 1004.9 |
| 20260831004030 | 26 | 121 | 8.0 | 20.9 | 0.00 | 0.00 | 0.00 | 79 | 1005.0 |
| 20260831003531 | 26 | 43 | 6.4 | 17.7 | 0.00 | 0.00 | 0.00 | 78 | 1005.0 |
| 20260831003028 | 26 | 49 | 8.0 | 22.5 | 0.00 | 0.00 | 0.00 | 78 | 1005.0 |
| 20260831002527 | 26 | 118 | 11.3 | 22.5 | 0.00 | 0.00 | 0.00 | 78 | 1005.0 |
| 20260831002030 | 26 | 153 | 9.7 | 19.3 | 0.00 | 0.00 | 0.00 | 78 | 1005.0 |
| 20260831001533 | 26 | 107 | 8.0 | 22.5 | 0.00 | 0.00 | 0.00 | 78 | 1005.2 |
| 20260831001027 | 26 | 151 | 8.0 | 19.3 | 0.00 | 0.00 | 0.00 | 78 | 1005.2 |
| 20260831000526 | 26 | 119 | 9.7 | 19.3 | 0.00 | 0.00 | 0.00 | 78 | 1005.3 |
| 20260831000024 | 26 | 131 | 6.4 | 17.7 | 0.00 | 0.00 | 0.00 | 78 | 1005.5 |
| 20260830235525 | 26 | 335 | 8.0 | 17.7 | 0.00 | 0.00 | 0.00 | 77 | 1005.6 |
| 20260830235028 | 26 | 149 | 8.0 | 22.5 | 0.00 | 0.00 | 0.00 | 77 | 1005.6 |
| 20260830234525 | 26 | 104 | 9.7 | 22.5 | 0.00 | 0.00 | 0.00 | 77 | 1005.7 |
| 20260830234024 | 26 | 83 | 8.0 | 22.5 | 0.00 | 0.00 | 0.00 | 76 | 1005.7 |
| 20260830233527 | 26 | 80 | 6.4 | 22.5 | 0.00 | 0.00 | 0.00 | 76 | 1005.5 |
| 20260830233022 | 27 | 141 | 9.7 | 22.5 | 0.00 | 0.00 | 0.00 | 75 | 1005.6 |
| 20260830232522 | 27 | 24 | 8.0 | 22.5 | 0.00 | 0.00 | 0.00 | 75 | 1005.7 |
| 20260830232025 | 27 | 9 | 9.7 | 24.1 | 0.00 | 0.00 | 0.00 | 75 | 1005.7 |
| 20260830231520 | 27 | 142 | 11.3 | 24.1 | 0.00 | 0.00 | 0.00 | 75 | 1005.6 |
| 20260830231021 | 27 | 145 | 11.3 | 22.5 | 0.00 | 0.00 | 0.00 | 76 | 1005.6 |
| 20260830230520 | 27 | 89 | 11.3 | 22.5 | 0.00 | 0.00 | 0.00 | 75 | 1005.7 |
| 20260830230020 | 27 | 52 | 9.7 | 22.5 | 0.00 | 0.00 | 0.00 | 75 | 1005.6 |
| 20260830225519 | 26 | 74 | 9.7 | 25.7 | 0.00 | 0.00 | 0.00 | 76 | 1005.6 |
| 20260830225021 | 26 | 45 | 9.7 | 25.7 | 0.00 | 0.00 | 0.00 | 76 | 1005.7 |
| 20260830224519 | 26 | 68 | 8.0 | 24.1 | 0.00 | 0.00 | 0.00 | 76 | 1005.8 |
| 20260830224021 | 26 | 34 | 11.3 | 24.1 | 0.00 | 0.00 | 0.00 | 76 | 1005.8 |
| 20260830223517 | 26 | 78 | 6.4 | 17.7 | 0.00 | 0.00 | 0.00 | 77 | 1005.9 |
| 20260830223023 | 26 | 130 | 6.4 | 20.9 | 0.00 | 0.00 | 0.00 | 76 | 1006.0 |
| 20260830222516 | 26 | 131 | 8.0 | 24.1 | 0.00 | 0.00 | 0.00 | 76 | 1006.1 |
| 20260830222019 | 26 | 71 | 9.7 | 24.1 | 0.00 | 0.00 | 0.00 | 76 | 1006.2 |
| 20260830221518 | 26 | 140 | 11.3 | 20.9 | 0.00 | 0.00 | 0.00 | 76 | 1006.3 |
| 20260830221015 | 26 | 64 | 6.4 | 19.3 | 0.00 | 0.00 | 0.00 | 76 | 1006.2 |
| 20260830220514 | 26 | 92 | 11.3 | 17.7 | 0.00 | 0.00 | 0.00 | 75 | 1006.4 |
| 20260830220014 | 26 | 89 | 8.0 | 24.1 | 0.00 | 0.00 | 0.00 | 75 | 1006.5 |
| 20260830215514 | 27 | 69 | 11.3 | 24.1 | 0.00 | 0.00 | 0.00 | 75 | 1006.5 |
| 20260830215013 | 26 | 103 | 12.9 | 24.1 | 0.00 | 0.00 | 0.00 | 76 | 1006.4 |
| 20260830214517 | 26 | 82 | 14.5 | 24.1 | 0.00 | 0.00 | 0.00 | 76 | 1006.5 |
| 20260830214011 | 26 | 103 | 9.7 | 20.9 | 0.00 | 0.00 | 0.00 | 75 | 1006.5 |
| 20260830213514 | 26 | 107 | 11.3 | 25.7 | 0.00 | 0.00 | 0.00 | 75 | 1006.6 |
| 20260830213010 | 26 | 52 | 11.3 | 25.7 | 0.00 | 0.00 | 0.00 | 75 | 1006.6 |
| 20260830212510 | 26 | 81 | 11.3 | 25.7 | 0.00 | 0.00 | 0.00 | 75 | 1006.7 |
| 20260830212010 | 26 | 82 | 12.9 | 25.7 | 0.00 | 0.00 | 0.00 | 77 | 1006.8 |
| 20260830211511 | 26 | 97 | 11.3 | 20.9 | 0.00 | 0.00 | 0.00 | 76 | 1006.8 |
| 20260830211008 | 26 | 71 | 11.3 | 20.9 | 0.00 | 0.00 | 0.00 | 76 | 1006.9 |
| 20260830210508 | 26 | 56 | 9.7 | 24.1 | 0.00 | 0.00 | 0.00 | 75 | 1006.9 |
| 20260830210008 | 26 | 112 | 8.0 | 24.1 | 0.00 | 0.00 | 0.00 | 75 | 1006.9 |
| 20260830205510 | 26 | 79 | 11.3 | 20.9 | 0.00 | 0.00 | 0.00 | 75 | 1007.0 |
| 20260830205007 | 26 | 53 | 8.0 | 22.5 | 0.00 | 0.00 | 0.00 | 75 | 1007.1 |
| 20260830204507 | 26 | 83 | 11.3 | 27.4 | 0.00 | 0.00 | 0.00 | 76 | 1007.2 |
| 20260830204005 | 26 | 103 | 12.9 | 27.4 | 0.00 | 0.00 | 0.00 | 75 | 1007.1 |
| 20260830203504 | 26 | 100 | 12.9 | 25.7 | 0.00 | 0.00 | 0.00 | 75 | 1007.1 |
| 20260830203013 | 26 | 98 | 11.3 | 24.1 | 0.00 | 0.00 | 0.00 | 76 | 1007.2 |
| 20260830202504 | 26 | 108 | 12.9 | 24.1 | 0.00 | 0.00 | 0.00 | 76 | 1007.2 |
| 20260830202003 | 26 | 105 | 14.5 | 22.5 | 0.00 | 0.00 | 0.00 | 77 | 1007.2 |
| 20260830201502 | 26 | 98 | 12.9 | 22.5 | 0.00 | 0.00 | 0.00 | 77 | 1007.3 |
| 20260830201003 | 26 | 35 | 9.7 | 22.5 | 0.00 | 0.00 | 0.00 | 76 | 1007.5 |
| 20260830200601 | 26 | 57 | 12.9 | 22.5 | 0.00 | 0.00 | 0.00 | 76 | 1007.6 |
| 20260830200113 | 25 | 64 | 9.7 | 24.1 | 0.00 | 0.00 | 0.00 | 78 | 1007.7 |
| 20260830195559 | 25 | 82 | 14.5 | 24.1 | 0.00 | 0.00 | 0.00 | 78 | 1007.9 |
| 20260830195056 | 25 | 91 | 9.7 | 19.3 | 0.00 | 0.00 | 0.00 | 78 | 1008.1 |
| 20260830194630 | 25 | 88 | 9.7 | 19.3 | 0.00 | 0.00 | 0.00 | 78 | 1008.3 |
| 20260830194057 | 25 | 87 | 6.4 | 17.7 | 0.00 | 0.00 | 0.00 | 78 | 1008.3 |
| 20260830193559 | 25 | 59 | 8.0 | 16.1 | 0.00 | 0.00 | 0.00 | 78 | 1008.4 |
| 20260830193056 | 25 | 44 | 6.4 | 17.7 | 0.00 | 0.00 | 0.00 | 78 | 1008.3 |
| 20260830192555 | 25 | 58 | 9.7 | 17.7 | 0.00 | 0.00 | 0.00 | 76 | 1008.4 |
| 20260830192054 | 25 | 132 | 6.4 | 16.1 | 0.00 | 0.00 | 0.00 | 77 | 1008.5 |
| 20260830191600 | 25 | 83 | 6.4 | 16.1 | 0.00 | 0.00 | 0.00 | 78 | 1008.5 |
| 20260830191057 | 25 | 157 | 6.4 | 19.3 | 0.00 | 0.00 | 0.00 | 78 | 1008.5 |
| 20260830190555 | 25 | 88 | 6.4 | 19.3 | 0.00 | 0.00 | 0.00 | 78 | 1008.6 |
| 20260830190056 | 25 | 38 | 8.0 | 19.3 | 0.00 | 0.00 | 0.00 | 78 | 1008.5 |
| 20260830185555 | 25 | 82 | 6.4 | 16.1 | 0.00 | 0.00 | 0.00 | 77 | 1008.5 |
| 20260830185054 | 25 | 161 | 8.0 | 25.7 | 0.00 | 0.00 | 0.00 | 77 | 1008.4 |
| 20260830184555 | 25 | 121 | 9.7 | 25.7 | 0.00 | 0.00 | 0.00 | 77 | 1008.3 |
| 20260830184054 | 25 | 141 | 8.0 | 22.5 | 0.00 | 0.00 | 0.00 | 78 | 1008.3 |
| 20260830183558 | 25 | 131 | 8.0 | 17.7 | 0.00 | 0.00 | 0.00 | 77 | 1008.3 |
| 20260830183100 | 25 | 121 | 4.8 | 17.7 | 0.00 | 0.00 | 0.00 | 77 | 1008.2 |
| 20260830182556 | 25 | 144 | 6.4 | 22.5 | 0.00 | 0.00 | 0.00 | 76 | 1008.2 |
| 20260830182053 | 26 | 92 | 11.3 | 29.0 | 0.00 | 0.00 | 0.00 | 75 | 1008.3 |
| 20260830181553 | 26 | 127 | 17.7 | 29.0 | 0.00 | 0.00 | 0.00 | 74 | 1008.5 |
| 20260830181054 | 26 | 149 | 8.0 | 19.3 | 0.00 | 0.00 | 0.00 | 74 | 1008.4 |
| 20260830180551 | 26 | 107 | 6.4 | 19.3 | 0.00 | 0.00 | 0.00 | 75 | 1008.5 |
| 20260830180049 | 25 | 140 | 4.8 | 16.1 | 0.00 | 0.00 | 0.00 | 78 | 1008.4 |
| 20260830175548 | 25 | 157 | 4.8 | 16.1 | 0.00 | 0.00 | 0.00 | 77 | 1008.4 |
| 20260830175049 | 25 | 46 | 6.4 | 17.7 | 0.00 | 0.00 | 0.00 | 76 | 1008.4 |
| 20260830174554 | 25 | 163 | 8.0 | 19.3 | 0.00 | 0.00 | 0.00 | 77 | 1008.5 |
| 20260830174052 | 25 | 75 | 8.0 | 22.5 | 0.00 | 0.00 | 0.00 | 77 | 1008.5 |
| 20260830173548 | 25 | 82 | 8.0 | 20.9 | 0.00 | 0.00 | 0.00 | 76 | 1008.7 |
| 20260830173103 | 25 | 150 | 9.7 | 17.7 | 0.00 | 0.00 | 0.00 | 79 | 1008.6 |
| 20260830172545 | 24 | 120 | 6.4 | 17.7 | 0.00 | 0.00 | 0.00 | 79 | 1008.5 |
| 20260830172045 | 24 | 89 | 8.0 | 25.7 | 0.00 | 0.00 | 0.00 | 79 | 1008.5 |
| 20260830171549 | 24 | 37 | 12.9 | 25.7 | 0.00 | 0.00 | 0.00 | 78 | 1008.5 |
| 20260830171045 | 25 | 77 | 9.7 | 19.3 | 0.00 | 0.00 | 0.00 | 79 | 1008.5 |
| 20260830170547 | 24 | 128 | 9.7 | 19.3 | 0.00 | 0.00 | 0.00 | 81 | 1008.5 |
| 20260830170052 | 23 | 105 | 9.7 | 19.3 | 0.00 | 0.00 | 0.00 | 80 | 1008.5 |
| 20260830165544 | 23 | 81 | 8.0 | 16.1 | 0.00 | 0.00 | 0.00 | 81 | 1008.5 |
| 20260830165044 | 23 | 111 | 8.0 | 22.5 | 0.00 | 0.00 | 0.00 | 81 | 1008.5 |
| 20260830164552 | 23 | 166 | 9.7 | 22.5 | 0.00 | 0.00 | 0.00 | 81 | 1008.4 |
| 20260830164044 | 23 | 176 | 6.4 | 19.3 | 0.00 | 0.00 | 0.00 | 80 | 1008.4 |
| 20260830163543 | 23 | 74 | 9.7 | 19.3 | 0.00 | 0.00 | 0.00 | 80 | 1008.4 |
| 20260830163054 | 24 | 30 | 11.3 | 20.9 | 0.00 | 0.00 | 0.00 | 79 | 1008.4 |
| 20260830162542 | 24 | 107 | 8.0 | 22.5 | 0.00 | 0.00 | 0.00 | 79 | 1008.5 |
| 20260830162041 | 25 | 127 | 6.4 | 20.9 | 0.00 | 0.00 | 0.00 | 79 | 1008.4 |
| 20260830161559 | 24 | 71 | 9.7 | 19.3 | 0.00 | 0.00 | 0.00 | 80 | 1008.3 |
| 20260830161041 | 24 | 69 | 11.3 | 20.9 | 0.00 | 0.00 | 0.00 | 80 | 1008.6 |
| 20260830160540 | 24 | 97 | 9.7 | 22.5 | 0.00 | 0.00 | 0.00 | 80 | 1008.6 |
| 20260830160040 | 24 | 111 | 8.0 | 22.5 | 0.00 | 0.00 | 0.00 | 79 | 1008.7 |
| 20260830155539 | 24 | 159 | 6.4 | 16.1 | 0.00 | 0.00 | 0.00 | 81 | 1008.7 |
| 20260830155038 | 23 | 60 | 8.0 | 19.3 | 0.00 | 0.00 | 0.00 | 83 | 1008.6 |
| 20260830154536 | 23 | 77 | 9.7 | 19.3 | 0.00 | 0.00 | 0.00 | 84 | 1008.7 |
| 20260830154038 | 23 | 85 | 9.7 | 20.9 | 0.00 | 0.00 | 0.00 | 83 | 1008.6 |
| 20260830153537 | 23 | 78 | 12.9 | 20.9 | 0.00 | 0.00 | 0.00 | 82 | 1008.6 |
| 20260830153045 | 23 | 120 | 9.7 | 20.9 | 0.00 | 0.00 | 0.00 | 82 | 1008.7 |
| 20260830152533 | 23 | 63 | 6.4 | 14.5 | 0.00 | 0.00 | 0.00 | 84 | 1008.7 |
| 20260830152033 | 23 | 109 | 8.0 | 20.9 | 0.00 | 0.00 | 0.00 | 84 | 1008.7 |
| 20260830151534 | 23 | 70 | 8.0 | 20.9 | 0.00 | 0.00 | 0.00 | 84 | 1008.7 |
| 20260830151034 | 23 | 108 | 6.4 | 20.9 | 0.00 | 0.00 | 0.00 | 83 | 1008.7 |
| 20260830150532 | 23 | 70 | 11.3 | 20.9 | 0.00 | 0.00 | 0.00 | 84 | 1008.8 |
| 20260830150032 | 23 | 111 | 9.7 | 19.3 | 0.00 | 0.00 | 0.00 | 84 | 1008.9 |
| 20260830145530 | 23 | 67 | 9.7 | 20.9 | 0.00 | 0.03 | 0.00 | 85 | 1009.1 |
| 20260830145034 | 23 | 87 | 8.0 | 20.9 | 0.00 | 0.03 | 0.00 | 85 | 1009.2 |
| 20260830144529 | 22 | 91 | 4.8 | 16.1 | 0.00 | 0.03 | 0.00 | 85 | 1009.1 |
| 20260830144028 | 22 | 62 | 9.7 | 16.1 | 0.00 | 0.03 | 0.00 | 85 | 1009.2 |
| 20260830143527 | 22 | 56 | 4.8 | 16.1 | 0.00 | 0.03 | 0.00 | 86 | 1009.3 |
| 20260830143025 | 22 | 106 | 4.8 | 16.1 | 0.00 | 0.03 | 0.00 | 87 | 1009.3 |
| 20260830142523 | 22 | 86 | 9.7 | 16.1 | 0.00 | 0.03 | 0.00 | 88 | 1009.3 |
| 20260830142023 | 21 | 66 | 6.4 | 14.5 | 0.00 | 0.03 | 0.00 | 89 | 1009.3 |
| 20260830141522 | 21 | 86 | 3.2 | 14.5 | 0.00 | 0.03 | 0.00 | 89 | 1009.2 |
| 20260830141020 | 21 | 55 | 8.0 | 14.5 | 0.00 | 0.03 | 0.00 | 89 | 1009.4 |
| 20260830140521 | 21 | 81 | 4.8 | 11.3 | 0.00 | 0.03 | 0.00 | 90 | 1009.4 |
| 20260830140020 | 21 | 67 | 4.8 | 12.9 | 0.00 | 0.03 | 0.00 | 90 | 1009.5 |
| 20260830135519 | 21 | 80 | 3.2 | 8.0 | 0.00 | 0.03 | 0.00 | 90 | 1009.5 |
| 20260830135016 | 21 | 25 | 3.2 | 8.0 | 0.00 | 0.03 | 0.00 | 90 | 1009.6 |
| 20260830134517 | 21 | 82 | 3.2 | 6.4 | 0.00 | 0.03 | 0.00 | 90 | 1009.7 |
| 20260830134015 | 21 | 79 | 1.6 | 6.4 | 0.00 | 0.03 | 0.00 | 91 | 1009.8 |
| 20260830133517 | 21 | 73 | 0.0 | 4.8 | 0.00 | 0.03 | 0.00 | 91 | 1009.7 |
| 20260830133015 | 21 | 75 | 1.6 | 8.0 | 0.00 | 0.03 | 0.00 | 91 | 1009.9 |
| 20260830132511 | 20 | 59 | 1.6 | 8.0 | 0.00 | 0.03 | 0.00 | 91 | 1009.7 |
| 20260830132014 | 20 | 65 | 1.6 | 6.4 | 0.00 | 0.03 | 0.00 | 91 | 1009.7 |
| 20260830131514 | 20 | 105 | 1.6 | 4.8 | 0.00 | 0.03 | 0.00 | 91 | 1009.6 |
| 20260830131011 | 20 | 105 | 1.6 | 6.4 | 0.00 | 0.03 | 0.00 | 91 | 1009.7 |
| 20260830130512 | 20 | 111 | 1.6 | 8.0 | 0.00 | 0.03 | 0.00 | 91 | 1009.6 |
| 20260830130010 | 20 | 86 | 1.6 | 8.0 | 0.00 | 0.03 | 0.00 | 91 | 1009.5 |
| 20260830125510 | 20 | 76 | 3.2 | 9.7 | 0.00 | 0.03 | 0.00 | 91 | 1009.2 |